Volver al catálogo

STARLINK-33996

ActivoComunicacionesVLEO
NORAD 63944·PAYLOAD·🇺🇸 United States

Lanzado May 13, 2025 desde Vandenberg Space Force Base

Loading…

Próximos Pases (próximas 24 horas)

TLE

ActualizadoSource: CelesTrak SupGP

Época: Sep 14, 2026, 21:04 UTC

1 63944C 25098U   26257.87826389 -.00052499  00000+0 -18258-2 0  2576
2 63944  70.0004 155.8259 0003226 266.5352  25.0442 15.29614680    16

Sigue STARLINK-33996 en tiempo real con AllMySat

Download on the App Store